Mar del Plata, Argentina

4:22 PM America en Octubre 21, 2018 (GMT +0000)
Mar Del Plata International

Tiempo Historia de SAZM - Octubre, 2018

Change the Weather History Date:

Jueves, Octubre 11, 2018

  Actual Average Record
Temperature  
Temperatura media 44 ° F -  
Temperatura máxima 55 ° F 67 ° F 77 ° F (2005)
Temperatura mínima 34 ° F 47 ° F 30 ° F (2012)
Degree Days  
Grados día de calefacción 20    
Moisture  
Punto de rocío 39 ° F    
Average Humidity 74    
Maximum Humidity 93    
Minimum Humidity 51    
Precipitación  
Precipitación 0.00 pul 0.11 pul - ()
Presión al nivel del mar  
Presión al nivel del mar 30.29 pul    
Viento  
Velocidad del viento 6 mph ()    
Velocidad máxima del viento 13 mph    
Max Gust Speed -    
Visibilidad 6.1 Millas    
Eventos      
Averages and records for this station are not official NWS values.
T = Trace of Precipitation, MM = Missing Value Source: Averaged Metar Reports

Daily Weather History Graph

Daily Weather History Graph

Search for Another Location

Airport or City:

Astronomía

Oct. 11, 2018 Salida Puesta
Hora real 6:10 AM -03 7:04 PM -03
Crepúsculo civil 5:43 AM -03 7:30 PM -03
Crepúsculo náutico 5:12 AM -03 8:02 PM -03
Crepúsculo astronómico 4:39 AM -03 8:35 PM -03
Luna 7:57 AM -03 (10/11) 9:49 PM -03 (10/11)
Horas de luz 13h 46m
Horas de luz
12h 53m
Creciente, 7% of the Moon is Illuminated
Oct 11
Creciente
Oct 16
Cuarto creciente
Oct 24
Luna llena
Oct 31
Cuarto menguante
Nov 7
Nueva

Hourly Weather History & Observations

Hora (-03) Temp. Vientos helados Punto de rocío Humedad Presión Visibilidad Wind Dir Velocidad del viento Velocidad de ráfagas Precip Eventos Condiciones
12:00 AM 38 ° F - 35 ° F 84% 30.31 pul 6 mi ONO 4.6 mph - -  
12:00 AM 39.2 ° F 37.0 ° F 33.8 ° F 81% 30.27 pul - Oeste 3.5 mph - N/A   Despejado
1:00 AM 37.4 ° F 32.8 ° F 35.6 ° F 93% 30.30 pul - Oeste 5.8 mph - N/A   Despejado
2:00 AM 37.4 ° F 33.8 ° F 33.8 ° F 87% 30.30 pul - Oeste 4.6 mph - N/A   Despejado
3:00 AM 35 ° F - 32 ° F 84% 30.31 pul 6 mi NO 4.6 mph - -  
3:00 AM 37.4 ° F 32.8 ° F 33.8 ° F 87% 30.30 pul - Oeste 5.8 mph - N/A   Despejado
4:00 AM 35.6 ° F 31.7 ° F 33.8 ° F 93% 30.30 pul 6.2 mi NO 4.6 mph - N/A   Nubes dispersas
5:00 AM 37.4 ° F 32.8 ° F 35.6 ° F 93% 30.27 pul 6.2 mi ONO 5.8 mph - N/A   Muy nublado
6:00 AM 40 ° F - 38 ° F 88% 30.33 pul 6 mi Sin viento Sin viento - -   Muy nublado
6:00 AM 41.0 ° F 38.0 ° F 37.4 ° F 87% 30.30 pul 6.2 mi Oeste 4.6 mph - N/A   Muy nublado
7:00 AM 39.2 ° F 35.0 ° F 37.4 ° F 93% 30.30 pul 6.2 mi NO 5.8 mph - N/A   Muy nublado
8:00 AM 44.6 ° F - 41.0 ° F 87% 30.33 pul 6.2 mi Sin viento Sin viento - N/A   Muy nublado
9:00 AM 49 ° F - 40 ° F 63% 30.35 pul 6 mi SO 5.8 mph - -   Nubes dispersas
9:00 AM 48.2 ° F - 41.0 ° F 76% 30.33 pul 6.2 mi SO 5.8 mph - N/A   Nubes dispersas
10:00 AM 51.8 ° F - 39.2 ° F 62% 30.33 pul 6.2 mi SO 5.8 mph - N/A   Nubes dispersas
11:00 AM 53.6 ° F - 35.6 ° F 51% 30.33 pul 6.2 mi ONO 5.8 mph - N/A   Nubes dispersas
12:00 PM 54 ° F - 43 ° F 56% 30.33 pul 6 mi ESE 11.5 mph - -   Muy nublado
12:00 PM 53.6 ° F - 42.8 ° F 67% 30.30 pul 6.2 mi ESE 11.5 mph - N/A   Nubes dispersas
1:00 PM 53.6 ° F - 41.0 ° F 62% 30.30 pul 6.2 mi ESE 9.2 mph - N/A   Nubes dispersas
2:00 PM 53.6 ° F - 41.0 ° F 62% 30.27 pul 6.2 mi ESE 11.5 mph - N/A   Nubes dispersas
3:00 PM 53 ° F - 43 ° F 58% 30.28 pul 6 mi ESE 11.5 mph - -   Nubes dispersas
3:00 PM 53.6 ° F - 42.8 ° F 67% 30.27 pul 6.2 mi ESE 11.5 mph - N/A   Nubes dispersas
4:00 PM 53.6 ° F - 42.8 ° F 67% 30.27 pul 6.2 mi ESE 11.5 mph - N/A   Nubes dispersas
5:00 PM 51.8 ° F - 41.0 ° F 67% 30.24 pul 6.2 mi ESE 12.7 mph - N/A   Parcialmente nublado
6:00 PM 50 ° F - 40 ° F 60% 30.28 pul 6 mi ESE 12.7 mph - -   Nubes dispersas
6:00 PM 50.0 ° F - 41.0 ° F 71% 30.27 pul - ESE 11.5 mph - N/A   Despejado
7:00 PM 48.2 ° F - 41.0 ° F 76% 30.24 pul - ESE 11.5 mph - N/A   Despejado
8:00 PM 48.2 ° F - 41.0 ° F 76% 30.24 pul 6.2 mi Este 9.2 mph - N/A   Muy nublado
9:00 PM 49 ° F - 41 ° F 67% 30.27 pul 6 mi Este 9.2 mph - -   Muy nublado
9:00 PM 50.0 ° F - 39.2 ° F 66% 30.24 pul - Este 9.2 mph - N/A   Despejado
10:00 PM 50.0 ° F - 41.0 ° F 71% 30.24 pul - Este 8.1 mph - N/A   Despejado
11:00 PM 50.0 ° F - 41.0 ° F 71% 30.24 pul - ENE 9.2 mph - N/A   Despejado